GW3529 Weather Reports


Display with metric or nautical units.
time (UTC)temp
F
wind
direction
speed
MPH
gust
MPH
rain 1hr
in
rain 24hr
in
rain mn
in
humidity
%
barometer
mb
20260903043052 82 209 7.0 14.0 0.00 0.01 0.01 28 1002.6
20260903041551 81 207 7.0 12.0 0.00 0.01 0.01 29 1002.8
20260903040053 81 213 4.0 10.0 0.00 0.01 0.01 29 1002.9
20260903034550 81 202 5.0 10.0 0.00 0.01 0.01 29 1002.9
20260903033050 82 172 9.0 18.0 0.00 0.01 0.01 28 1002.9
20260903031549 76 193 6.0 9.0 0.00 0.01 0.01 33 1003.0
20260903030048 75 199 5.0 8.0 0.00 0.01 0.01 35 1002.8
20260903024547 75 201 6.0 8.0 0.00 0.01 0.01 36 1002.7
20260903023047 76 179 3.0 9.0 0.00 0.01 0.01 33 1002.5
20260903021546 75 198 5.0 8.0 0.00 0.01 0.01 36 1002.4
20260903020047 77 200 4.0 7.0 0.00 0.01 0.01 33 1002.3
20260903014600 80 167 5.0 8.0 0.00 0.01 0.01 30 1002.3
20260903013043 84 215 0.0 3.0 0.00 0.01 0.01 25 1002.3
20260903011540 86 215 3.0 7.0 0.00 0.01 0.01 24 1002.4
20260903010040 86 211 4.0 10.0 0.00 0.01 0.01 24 1002.6
20260903004540 88 199 4.0 10.0 0.00 0.01 0.01 22 1002.6
20260903003037 89 186 7.0 11.0 0.00 0.01 0.01 20 1002.4
20260903001537 90 235 5.0 10.0 0.00 0.01 0.01 20 1002.5
20260903000036 91 181 5.0 10.0 0.00 0.01 0.01 19 1002.6
20260902234536 92 215 9.0 14.0 0.00 0.01 0.01 19 1002.5
20260902233034 92 234 11.0 17.0 0.00 0.01 0.01 18 1002.6
20260902231534 93 281 7.0 21.0 0.00 0.01 0.01 19 1002.5
20260902230032 94 240 9.0 18.0 0.00 0.01 0.01 18 1002.6
20260902224533 93 280 10.0 19.0 0.00 0.01 0.01 18 1002.6
20260902223032 94 266 7.0 19.0 0.00 0.01 0.01 19 1002.7
20260902221526 93 221 10.0 18.0 0.00 0.01 0.01 20 1002.7
20260902220025 93 185 9.0 17.0 0.00 0.01 0.01 20 1002.9
20260902214527 92 224 9.0 17.0 0.00 0.01 0.01 21 1003.0
20260902213018 89 109 1.0 10.0 0.00 0.01 0.01 31 1003.1
20260902211516 88 86 5.0 9.0 0.00 0.01 0.01 37 1003.3
20260902210009 86 133 2.0 12.0 0.00 0.01 0.01 42 1003.8
20260902204506 85 56 8.0 12.0 0.00 0.01 0.01 45 1004.1
20260902203003 84 29 4.0 13.0 0.00 0.01 0.01 49 1004.3
20260902201558 83 78 5.0 12.0 0.00 0.01 0.01 50 1004.6
20260902200055 82 134 5.0 12.0 0.00 0.01 0.01 52 1004.9
20260902194552 81 198 7.0 10.0 0.00 0.01 0.01 52 1005.1
20260902193049 81 204 7.0 10.0 0.00 0.01 0.01 53 1005.2
20260902191545 81 164 9.0 13.0 0.00 0.01 0.01 53 1005.4
20260902190044 80 197 6.0 11.0 0.00 0.01 0.01 53 1005.8
20260902184537 77 103 9.0 15.0 0.00 0.01 0.01 56 1006.0
20260902183034 76 126 5.0 12.0 0.00 0.01 0.01 58 1006.4
20260902181530 75 61 3.0 11.0 0.00 0.01 0.01 61 1006.6
20260902180026 73 69 0.0 8.0 0.00 0.01 0.01 67 1007.0
20260902174522 71 68 0.0 10.0 0.00 0.01 0.01 71 1007.3
20260902173020 70 78 1.0 9.0 0.00 0.01 0.01 73 1007.6
20260902171521 70 107 0.0 10.0 0.00 0.01 0.01 74 1007.8
20260902170016 70 80 0.0 5.0 0.00 0.01 0.01 74 1008.0
20260902164516 68 32 0.0 10.0 0.00 0.01 0.01 78 1008.1
20260902163010 68 103 0.0 10.0 0.00 0.01 0.01 76 1008.1
20260902161507 66 333 0.0 1.0 0.00 0.01 0.01 80 1007.9
20260902160008 64 355 0.0 0.0 0.00 0.01 0.01 81 1008.0
20260902154504 63 355 0.0 3.0 0.00 0.01 0.01 82 1008.0
20260902153004 64 343 0.0 2.0 0.00 0.01 0.01 81 1008.3
20260902151609 63 323 0.0 0.0 0.00 0.01 0.01 82 1008.3
20260902150100 61 317 0.0 0.0 0.00 0.01 0.01 82 1008.5
20260902144559 60 146 0.0 1.0 0.00 0.01 0.01 81 1008.4
20260902143059 59 146 0.0 0.0 0.01 0.01 0.01 81 1008.3
20260902141558 58 146 0.0 0.0 0.01 0.01 0.01 82 1008.4
20260902140059 57 209 0.0 0.0 0.01 0.01 0.01 83 1008.5
20260902134606 55 209 0.0 0.0 0.01 0.01 0.01 83 1008.4
20260902133105 54 209 0.0 0.0 0.00 0.00 0.00 83 1008.4
20260902131555 53 209 0.0 0.0 0.00 0.00 0.00 83 1008.3
20260902130058 53 210 0.0 0.0 0.00 0.00 0.00 83 1008.2
20260902124558 52 210 0.0 0.0 0.00 0.00 0.00 83 1008.2
20260902123053 53 210 0.0 0.0 0.00 0.00 0.00 83 1008.0
20260902121553 54 210 0.0 0.0 0.00 0.00 0.00 83 1008.1
20260902120049 54 209 0.0 0.0 0.00 0.00 0.00 83 1008.0
20260902114556 55 217 0.0 1.0 0.00 0.00 0.00 83 1007.9
20260902113050 54 219 0.0 0.0 0.00 0.00 0.00 83 1007.7
20260902111547 54 219 0.0 0.0 0.00 0.00 0.00 83 1007.5
20260902110045 55 218 0.0 0.0 0.00 0.00 0.00 83 1007.4
20260902104544 55 218 0.0 0.0 0.00 0.00 0.00 83 1007.6
20260902103042 56 218 0.0 0.0 0.00 0.00 0.00 82 1007.6
20260902101539 56 346 0.0 0.0 0.00 0.00 0.00 82 1007.5
20260902100051 56 346 0.0 0.0 0.00 0.00 0.00 82 1007.7
20260902094537 56 346 0.0 0.0 0.00 0.00 0.00 82 1007.5
20260902093004 57 347 0.0 0.0 0.00 0.00 0.00 82 1007.6
20260902091503 58 347 0.0 0.0 0.00 0.00 0.00 82 1007.5
20260902090002 57 347 0.0 0.0 0.00 0.00 0.00 82 1007.5
20260902084502 57 347 0.0 0.0 0.00 0.00 0.00 82 1007.5
20260902083059 59 209 0.0 0.0 0.00 0.00 0.00 82 1007.4
20260902081558 60 209 0.0 0.0 0.00 0.00 0.00 82 1007.5
20260902080112 60 227 0.0 0.0 0.00 0.00 0.00 82 1007.5
20260902074557 60 227 0.0 0.0 0.00 0.00 0.00 82 1007.6
20260902073103 61 182 0.0 0.0 0.00 0.00 0.00 82 1007.8
20260902071608 61 185 0.0 0.0 0.00 0.00 0.00 81 1007.9
20260902070050 61 184 0.0 0.0 0.00 0.00 0.00 82 1008.0
20260902064550 63 185 0.0 0.0 0.00 0.00 0.00 79 1008.1
20260902063047 62 185 0.0 0.0 0.00 0.00 0.00 82 1008.2
20260902060041 60 185 0.0 0.0 0.00 0.00 0.00 82 1008.7
20260902054544 60 185 0.0 0.0 0.00 0.00 0.00 82 1008.8
20260902053042 61 185 0.0 0.0 0.00 0.00 0.00 80 1008.9
20260902051537 61 185 0.0 0.0 0.00 0.00 0.00 81 1008.9
20260902050045 61 185 0.0 0.0 0.00 0.00 0.00 81 1008.9
20260902044540 61 165 0.0 0.0 0.00 0.00 0.00 81 1008.8